When you browse on this site, cookies collect data to enhance your experience and personalize the content and advertising you see.
Visit our Privacy Policy to learn more. By continuing to use the site, you agree to this use of cookies and data.
  • în România
  • Lista ţărilor
  • Pe 7 zile
  • Temperatura apei
  • Hartă satelitară
  • Meteo pe hartă
  • Widget-uri
  • user-avatar
    Intrare

    Meteo pe oră la Saint-Nazaire

    Astăzi, 20 Iunie, Joi

    Timp Temperatura Precipitaţii Vânt Presiune Umiditate
    00:00 +13°C° 0 mm 4 m/s 761 mmHg 93%
    01:00 +13°C° 0 mm 4 m/s 761 mmHg 92%
    02:00 +12°C° 0 mm 3 m/s 761 mmHg 92%
    03:00 +11°C° 0 mm 3 m/s 761 mmHg 91%
    04:00 +11°C° 0 mm 3 m/s 761 mmHg 88%
    05:00 +12°C° 0 mm 3 m/s 761 mmHg 86%
    06:00 +12°C° 0 mm 3 m/s 762 mmHg 83%
    07:00 +14°C° 0 mm 3 m/s 762 mmHg 76%
    08:00 +16°C° 0 mm 3 m/s 762 mmHg 68%
    09:00 +17°C° 0 mm 3 m/s 762 mmHg 61%
    10:00 +18°C° 0 mm 3 m/s 762 mmHg 59%
    11:00 +19°C° 0 mm 4 m/s 762 mmHg 57%
    12:00 +19°C° 0 mm 4 m/s 763 mmHg 56%
    13:00 +19°C° 0 mm 4 m/s 762 mmHg 59%
    14:00 +19°C° 0 mm 5 m/s 762 mmHg 61%
    15:00 +19°C° 0 mm 6 m/s 762 mmHg 64%
    16:00 +17°C° 0 mm 5 m/s 762 mmHg 66%
    17:00 +17°C° 0 mm 5 m/s 762 mmHg 68%
    18:00 +17°C° 0 mm 5 m/s 763 mmHg 70%
    19:00 +15°C° 0 mm 5 m/s 763 mmHg 76%
    20:00 +14°C° 0 mm 4 m/s 763 mmHg 81%
    21:00 +13°C° 0 mm 4 m/s 763 mmHg 87%
    22:00 +13°C° 0 mm 4 m/s 764 mmHg 88%
    23:00 +12°C° 0 mm 4 m/s 764 mmHg 89%

    Mâine, 21 Iunie, Vineri

    Timp Temperatura Precipitaţii Vânt Presiune Umiditate
    00:00 +12°C° 0 mm 3 m/s 764 mmHg 91%
    01:00 +11°C° 0 mm 3 m/s 764 mmHg 90%
    02:00 +10°C° 0 mm 3 m/s 764 mmHg 90%
    03:00 +10°C° 0 mm 3 m/s 764 mmHg 90%
    04:00 +10°C° 0 mm 3 m/s 764 mmHg 88%
    05:00 +11°C° 0 mm 3 m/s 765 mmHg 85%
    06:00 +11°C° 0 mm 3 m/s 765 mmHg 83%
    07:00 +13°C° 0 mm 3 m/s 765 mmHg 76%
    08:00 +16°C° 0 mm 3 m/s 765 mmHg 68%
    09:00 +18°C° 0 mm 3 m/s 765 mmHg 61%
    10:00 +19°C° 0 mm 3 m/s 765 mmHg 58%
    11:00 +20°C° 0 mm 3 m/s 765 mmHg 55%
    12:00 +20°C° 0 mm 2 m/s 765 mmHg 52%
    13:00 +20°C° 0 mm 3 m/s 765 mmHg 54%
    14:00 +20°C° 0 mm 4 m/s 765 mmHg 56%
    15:00 +20°C° 0 mm 4 m/s 765 mmHg 58%
    16:00 +20°C° 0 mm 4 m/s 765 mmHg 61%
    17:00 +20°C° 0 mm 4 m/s 765 mmHg 63%
    18:00 +20°C° 0 mm 4 m/s 765 mmHg 66%
    19:00 +18°C° 0 mm 4 m/s 765 mmHg 73%
    20:00 +15°C° 0 mm 4 m/s 765 mmHg 80%
    21:00 +13°C° 0 mm 4 m/s 765 mmHg 87%
    22:00 +12°C° 0 mm 4 m/s 765 mmHg 87%
    23:00 +11°C° 0 mm 4 m/s 765 mmHg 86%

    Poimâine, 22 Iunie, Sâmbătă

    Timp Temperatura Precipitaţii Vânt Presiune Umiditate
    00:00 +10°C° 0 mm 4 m/s 765 mmHg 86%
    01:00 +10°C° 0 mm 4 m/s 765 mmHg 88%
    02:00 +10°C° 0 mm 4 m/s 764 mmHg 91%
    03:00 +10°C° 0 mm 4 m/s 764 mmHg 93%
    04:00 +11°C° 0 mm 4 m/s 764 mmHg 91%
    05:00 +12°C° 0 mm 4 m/s 764 mmHg 89%
    06:00 +13°C° 0 mm 4 m/s 764 mmHg 86%
    07:00 +15°C° 0 mm 4 m/s 764 mmHg 81%
    08:00 +18°C° 0 mm 4 m/s 764 mmHg 75%
    09:00 +20°C° 0 mm 4 m/s 763 mmHg 69%
    10:00 +21°C° 0 mm 4 m/s 763 mmHg 64%
    11:00 +22°C° 0 mm 4 m/s 763 mmHg 60%
    12:00 +24°C° 0 mm 3 m/s 763 mmHg 55%
    13:00 +24°C° 0 mm 3 m/s 762 mmHg 55%
    14:00 +24°C° 0 mm 3 m/s 762 mmHg 55%
    15:00 +24°C° 0 mm 3 m/s 762 mmHg 56%
    16:00 +24°C° 0 mm 2 m/s 761 mmHg 59%
    17:00 +23°C° 0 mm 2 m/s 761 mmHg 62%
    18:00 +23°C° 0 mm 1 m/s 761 mmHg 66%
    19:00 +21°C° 0 mm 2 m/s 761 mmHg 69%
    20:00 +19°C° 0 mm 2 m/s 761 mmHg 72%
    21:00 +18°C° 0 mm 3 m/s 761 mmHg 76%
    22:00 +18°C° 0 mm 3 m/s 761 mmHg 76%
    23:00 +17°C° 0 mm 4 m/s 761 mmHg 76%

    23 Iunie, Duminică

    Timp Temperatura Precipitaţii Vânt Presiune Umiditate
    00:00 +17°C° 0 mm 4 m/s 761 mmHg 76%
    01:00 +17°C° 0 mm 4 m/s 760 mmHg 81%
    02:00 +15°C° 0 mm 4 m/s 760 mmHg 87%
    03:00 +16°C° 0 mm 3 m/s 760 mmHg 92%
    04:00 +15°C° 0 mm 4 m/s 760 mmHg 90%
    05:00 +17°C° 0 mm 4 m/s 760 mmHg 89%
    06:00 +18°C° 0 mm 4 m/s 760 mmHg 87%
    07:00 +19°C° 0 mm 4 m/s 759 mmHg 82%
    08:00 +21°C° 0 mm 4 m/s 759 mmHg 77%
    09:00 +23°C° 0 mm 4 m/s 759 mmHg 71%
    10:00 +25°C° 0 mm 4 m/s 759 mmHg 68%
    11:00 +26°C° 0 mm 4 m/s 759 mmHg 64%
    12:00 +27°C° 0 mm 4 m/s 759 mmHg 60%
    13:00 +27°C° 0 mm 4 m/s 758 mmHg 59%
    14:00 +28°C° 0 mm 4 m/s 758 mmHg 58%
    15:00 +28°C° 0 mm 4 m/s 757 mmHg 57%
    16:00 +27°C° 0 mm 4 m/s 757 mmHg 61%
    17:00 +26°C° 0 mm 4 m/s 757 mmHg 66%
    18:00 +25°C° 0 mm 4 m/s 757 mmHg 70%
    19:00 +22°C° 0 mm 4 m/s 758 mmHg 75%
    20:00 +21°C° 0 mm 3 m/s 758 mmHg 81%
    21:00 +19°C° 0 mm 3 m/s 758 mmHg 86%
    22:00 +19°C° 0 mm 3 m/s 759 mmHg 86%
    23:00 +19°C° 0 mm 3 m/s 759 mmHg 85%

    24 Iunie, Luni

    Timp Temperatura Precipitaţii Vânt Presiune Umiditate
    00:00 +19°C° 0 mm 4 m/s 759 mmHg 85%
    01:00 +19°C° 0 mm 3 m/s 760 mmHg 86%
    02:00 +18°C° 0 mm 2 m/s 760 mmHg 88%
    03:00 +19°C° 0 mm 1 m/s 760 mmHg 89%
    04:00 +19°C° 0.1 mm 1 m/s 760 mmHg 89%
    05:00 +19°C° 0.1 mm 1 m/s 761 mmHg 89%
    06:00 +19°C° 0.1 mm 1 m/s 761 mmHg 89%
    07:00 +20°C° 0 mm 1 m/s 761 mmHg 83%
    08:00 +21°C° 0 mm 2 m/s 761 mmHg 78%
    09:00 +23°C° 0 mm 2 m/s 762 mmHg 73%
    10:00 +24°C° 0 mm 2 m/s 762 mmHg 69%
    11:00 +25°C° 0 mm 2 m/s 762 mmHg 65%
    12:00 +26°C° 0 mm 3 m/s 762 mmHg 61%
    13:00 +26°C° 0.1 mm 3 m/s 762 mmHg 60%
    14:00 +27°C° 0.1 mm 4 m/s 762 mmHg 59%
    15:00 +27°C° 0.1 mm 4 m/s 761 mmHg 58%
    16:00 +27°C° 0 mm 5 m/s 761 mmHg 63%
    17:00 +26°C° 0 mm 5 m/s 761 mmHg 67%
    18:00 +26°C° 0 mm 5 m/s 761 mmHg 71%
    19:00 +23°C° 0 mm 5 m/s 761 mmHg 77%
    20:00 +22°C° 0 mm 6 m/s 761 mmHg 82%
    21:00 +21°C° 0 mm 6 m/s 761 mmHg 88%
    22:00 +20°C° 0 mm 6 m/s 761 mmHg 89%
    23:00 +20°C° 0 mm 6 m/s 760 mmHg 90%

    25 Iunie, Marţi

    Timp Temperatura Precipitaţii Vânt Presiune Umiditate
    00:00 +20°C° 0 mm 6 m/s 760 mmHg 91%
    01:00 +19°C° 0 mm 6 m/s 759 mmHg 93%
    02:00 +19°C° 0 mm 5 m/s 759 mmHg 94%
    03:00 +19°C° 0 mm 5 m/s 758 mmHg 95%
    04:00 +20°C° 0 mm 4 m/s 758 mmHg 93%
    05:00 +20°C° 0 mm 3 m/s 759 mmHg 92%
    06:00 +21°C° 0 mm 2 m/s 759 mmHg 90%
    07:00 +24°C° 0 mm 2 m/s 759 mmHg 84%
    08:00 +25°C° 0 mm 2 m/s 759 mmHg 78%
    09:00 +27°C° 0 mm 3 m/s 759 mmHg 73%
    10:00 +27°C° 0 mm 3 m/s 760 mmHg 72%
    11:00 +27°C° 0 mm 4 m/s 760 mmHg 72%
    12:00 +27°C° 0 mm 5 m/s 761 mmHg 72%
    13:00 +26°C° 0 mm 5 m/s 761 mmHg 73%
    14:00 +25°C° 0 mm 5 m/s 762 mmHg 74%
    15:00 +23°C° 0 mm 5 m/s 762 mmHg 74%
    16:00 +22°C° 0 mm 5 m/s 762 mmHg 76%
    17:00 +21°C° 0 mm 4 m/s 763 mmHg 77%
    18:00 +21°C° 0 mm 4 m/s 763 mmHg 78%
    19:00 +20°C° 0 mm 4 m/s 763 mmHg 80%
    20:00 +19°C° 0 mm 3 m/s 764 mmHg 82%
    21:00 +18°C° 0 mm 3 m/s 764 mmHg 84%
    22:00 +18°C° 0.1 mm 3 m/s 764 mmHg 85%
    23:00 +18°C° 0.1 mm 3 m/s 764 mmHg 86%
    Arată mai mult